Regional Weather Roundup
Issued by NWS State College, PA

Home | Current Version | Previous Version | Text Only | Print | Product List | Glossary Off
Versions: 1 2 3 4 5 6 7 8 9 10 11 12 13 14 15 16 17 18 19 20 21 22 23 24 25 26 27 28 29 30 31 32 33 34 35 36 37 38 39 40 41 42 43 44 45 46 47 48 49 50

000
ASUS41 KCTP 101203
RWRCTP

REGIONAL WEATHER ROUNDUP
NATIONAL WEATHER SERVICE STATE COLLEGE PA
700 AM EST SAT DEC 10 2016

Note: "fair" indicates few or no clouds below 12,000 feet with no
significant weather and/or obstructions to visibility.

* = STATION THAT DOES NOT REPORT PRECIPITATION /E.G. RAIN...SNOW...ETC/
    THUNDER OR FOG.

PAZ002>004-007>009-013>016-020>023-029>032-101300-
WESTERN PENNSYLVANIA

CITY           SKY/WX    TMP DP  RH WIND       PRES   REMARKS
ERIE           FLURRIES  26  21  81 SW8       30.37S
MEADVILLE      LGT SNOW  21  16  81 SW9       30.36R WCI  11
FRANKLIN*        N/A     21  12  68 SW12G17   30.37R WCI   9
NEW CASTLE     CLOUDY    24  18  77 W13       30.42R WCI  12
BEAVER COUNTY  NOT AVBL
BUTLER*        MOCLDY    23  16  74 W8G16     30.44R WCI  14
PITTSBURGH INT FLURRIES  25  19  78 W8        30.43S
PITTSBURGH     CLOUDY    23  16  74 W12       30.43R HAZE    WCI  12
INDIANA*       CLOUDY    23  18  80 W9        30.43R WCI  13
LATROBE        FLURRIES  23  19  86 SW17      30.44S WCI   9
WASHINGTON CO* CLOUDY    21  16  79 SW8       30.45S WCI  12
$$

PAZ004>006-010>012-017>019-024>028-033>037-041-042-045-046-049>053-101300-
CENTRAL PENNSYLVANIA

CITY           SKY/WX    TMP DP  RH WIND       PRES   REMARKS
BRADFORD       CLOUDY    20  17  88 W8        30.27R WCI  10
DUBOIS         CLOUDY    21  13  71 W13       30.32R WCI   9
CLEARFIELD     CLOUDY    23  18  81 SW8G20    30.35R WCI  14
JOHNSTOWN      CLOUDY    19  14  81 W10G22    30.32S WCI   7
ALTOONA        CLOUDY    24  16  71 W10       30.39R WCI  14
STATE COLLEGE  CLOUDY    23  18  80 W12G17    30.36R WCI  12
WILLIAMSPORT   CLOUDY    28  20  71 W8        30.37R
SELINSGROVE    MOCLDY    28  20  71 W5        30.40R
FT INDIANTOWN  MOCLDY    28  17  65 W12       30.40R
CAPITAL CITY   PTCLDY    28  16  60 W8        30.43R
HARRISBURG     CLOUDY    29  18  63 W9        30.42R
YORK           MOCLDY    26  18  71 W6        30.43R
$$

PAZ038>040-043-044-047-048-054-055-060>062-067>071-101300-
EASTERN PENNSYLVANIA

CITY           SKY/WX    TMP DP  RH WIND       PRES   REMARKS
SCRANTON       CLOUDY    26  22  84 SW7       30.32R
MOUNT POCONO   MOCLDY    20  16  84 W8        30.24R WCI  10
ALLENTOWN      CLOUDY    27  19  72 W7        30.38R
QUAKERTOWN*    PTSUNNY   27  18  69 W6        30.38S
READING        PTCLDY    27  16  63 W8        30.40R
LANCASTER      PTCLDY    24  18  77 W8        30.42R
COATESVILLE    MOSUNNY   25  18  74 W8        30.41R
POTTSTOWN      CLEAR     26  17  68 W5        30.42R
BLUE BELL      CLEAR     27  19  74 CALM      30.40R
DOYLESTOWN     PTCLDY    27  18  69 W5        30.38R
WILLOW GROVE   NOT AVBL
NORTH PHILA    PTCLDY    28  18  66 W7        30.43R
PHILADELPHIA   PTCLDY    27  17  66 W8        30.44R
$$



USA.gov is the U.S. government's official web portal to all federal, state and local government web resources and services.